Weather History for Hyannis, MA

Change the Weather History Date:

Friday, October 19, 2012

  Actual Average Record
Temperature  
Mean Temperature 61 °F -  
Max Temperature 68 °F 60 °F 76 °F (1963)
Min Temperature 54 °F 42 °F 26 °F (2001)
Degree Days  
Heating Degree Days 4    
Growing Degree Days 11 (Base 50)    
Moisture  
Dew Point 60 °F    
Average Humidity 90    
Maximum Humidity 100    
Minimum Humidity 72    
Precipitation  
Precipitation 0.08 in - - ()
Sea Level Pressure  
Sea Level Pressure 29.91 in    
Wind  
Wind Speed 8 mph (SE)    
Max Wind Speed 15 mph    
Max Gust Speed 30 mph    
Visibility 9 miles    
Events Rain , Thunderstorm    
Averages and records for this station are not official NWS values.
T = Trace of Precipitation, MM = Missing Value Source: NWS Daily Summary

Daily Weather History Graph

Daily Weather History Graph

Search for Another Location

Airport:

Trip Planner

Search our weather history database for the weather conditions in past years. The results will help you decide how hot, cold, wet, or windy it might be!

Date:

Astronomy

Oct. 19, 2012 Rise Set
Actual Time 6:58 AM EDT 5:53 PM EDT
Civil Twilight 6:30 AM EDT 6:21 PM EDT
Nautical Twilight 5:57 AM EDT 6:53 PM EDT
Astronomical Twilight 5:25 AM EDT 7:25 PM EDT
Moon 11:41 AM EDT (10/19) 9:25 PM EDT (10/19)
Length of Visible Light 11h 51m
Length of Day
10h 54m
Waxing Crescent, 23% of the Moon is Illuminated
Oct 19
Waxing Crescent
Oct 21
First Quarter
Oct 29
Full
Nov 6
Last Quarter
Nov 13
New

Hourly Weather History & Observations

Time (EDT) Temp. Dew Point Humidity Pressure Visibility Wind Dir Wind Speed Gust Speed Precip Events Conditions
12:56 AM 55.9 °F 55.0 °F 97% 30.06 in 10.0 mi ESE 3.5 mph - N/A   Clear
1:56 AM 57.0 °F 55.0 °F 93% 30.06 in 10.0 mi ESE 4.6 mph - N/A   Clear
2:56 AM 54.0 °F 53.1 °F 97% 30.06 in 10.0 mi Calm Calm - N/A   Scattered Clouds
3:56 AM 57.9 °F 55.9 °F 93% 30.03 in 10.0 mi East 4.6 mph - N/A   Partly Cloudy
4:56 AM 59.0 °F 54.0 °F 83% 30.03 in 10.0 mi ESE 5.8 mph - N/A   Scattered Clouds
5:56 AM 60.1 °F 55.0 °F 83% 30.03 in 10.0 mi ESE 5.8 mph - N/A   Clear
6:56 AM 61.0 °F 55.0 °F 81% 30.00 in 10.0 mi ESE 8.1 mph - N/A   Clear
7:56 AM 62.1 °F 55.0 °F 78% 30.03 in 10.0 mi SE 9.2 mph 18.4 mph N/A   Partly Cloudy
8:56 AM 63.0 °F 54.0 °F 72% 30.01 in 10.0 mi ESE 11.5 mph 19.6 mph N/A   Partly Cloudy
9:56 AM 63.0 °F 55.0 °F 75% 30.02 in 10.0 mi ESE 10.4 mph 18.4 mph N/A   Mostly Cloudy
10:56 AM 64.0 °F 55.0 °F 73% 30.00 in 10.0 mi ESE 11.5 mph 21.9 mph N/A   Mostly Cloudy
11:56 AM 64.9 °F 60.1 °F 84% 29.95 in 10.0 mi ESE 12.7 mph 29.9 mph N/A   Mostly Cloudy
12:56 PM 63.0 °F 59.0 °F 87% 29.93 in 10.0 mi ESE 13.8 mph 21.9 mph N/A   Overcast
1:28 PM 64.4 °F 60.8 °F 88% 29.91 in 10.0 mi ESE 10.4 mph 20.7 mph 0.00 in   Overcast
1:37 PM 62.6 °F 59.0 °F 88% 29.91 in 10.0 mi ESE 10.4 mph 19.6 mph 0.00 in   Overcast
1:56 PM 63.0 °F 60.1 °F 90% 29.91 in 10.0 mi ESE 8.1 mph 18.4 mph 0.00 in   Overcast
3:56 PM 64.0 °F 62.1 °F 93% 29.87 in 10.0 mi SE 12.7 mph 21.9 mph 0.00 in   Overcast
5:08 PM 62.6 °F 62.6 °F 100% 29.83 in 10.0 mi ESE 11.5 mph 20.7 mph 0.00 in   Overcast
5:56 PM 64.0 °F 62.1 °F 93% 29.81 in 8.0 mi ESE 15.0 mph 23.0 mph 0.00 in Rain Light Rain
6:56 PM 64.0 °F 62.1 °F 93% 29.80 in 9.0 mi SE 11.5 mph 21.9 mph 0.02 in Rain Light Rain
6:59 PM 62.6 °F 62.6 °F 100% 29.79 in 10.0 mi SE 9.2 mph 21.9 mph 0.00 in Rain Light Rain
7:56 PM 64.0 °F 62.1 °F 93% 29.79 in 10.0 mi SE 15.0 mph 25.3 mph 0.00 in   Overcast
8:44 PM 64.4 °F 64.4 °F 100% 29.78 in 9.0 mi SSE 11.5 mph 17.3 mph N/A   Overcast
8:56 PM 64.9 °F 64.0 °F 97% 29.78 in 8.0 mi SSE 8.1 mph 19.6 mph N/A   Overcast
10:03 PM 66.2 °F 66.2 °F 100% 29.79 in 6.0 mi South 8.1 mph 20.7 mph 0.00 in Rain Light Rain
10:25 PM 66.2 °F 66.2 °F 100% 29.79 in 5.0 mi South 9.2 mph 17.3 mph 0.05 in Rain Light Rain
10:56 PM 66.0 °F 66.0 °F 100% 29.78 in 7.0 mi South 9.2 mph - 0.05 in   Overcast
11:47 PM 68.0 °F 66.2 °F 94% 29.78 in 7.0 mi South 9.2 mph 23.0 mph 0.00 in Rain , Thunderstorm Light Rain
11:56 PM 68.0 °F 66.9 °F 96% 29.78 in 7.0 mi South 9.2 mph - 0.01 in Rain Light Rain